Year,Month,Day,Hour,Minute,Value (Times are PST for temperature in C)
2015,02,24,00,00,0.80
2015,02,24,00,01,0.80
2015,02,24,00,02,0.70
2015,02,24,00,03,0.70
2015,02,24,00,04,0.70
2015,02,24,00,05,0.70
2015,02,24,00,06,0.80
2015,02,24,00,07,0.80
2015,02,24,00,08,0.80
2015,02,24,00,09,0.80
2015,02,24,00,10,0.80
2015,02,24,00,11,0.80
2015,02,24,00,12,0.80
2015,02,24,00,13,0.80
2015,02,24,00,14,0.90
2015,02,24,00,15,0.90
2015,02,24,00,16,0.90
2015,02,24,00,17,0.90
2015,02,24,00,18,0.90
2015,02,24,00,19,0.90
2015,02,24,00,20,0.90
2015,02,24,00,21,0.90
2015,02,24,00,22,0.90
2015,02,24,00,23,0.90
2015,02,24,00,24,0.90
2015,02,24,00,25,0.90
2015,02,24,00,26,0.90
2015,02,24,00,27,0.90
2015,02,24,00,28,0.80
2015,02,24,00,29,0.80
2015,02,24,00,30,0.80
2015,02,24,00,31,0.80
2015,02,24,00,32,0.70
2015,02,24,00,33,0.70
2015,02,24,00,34,0.60
2015,02,24,00,35,0.60
2015,02,24,00,36,0.50
2015,02,24,00,37,0.50
2015,02,24,00,38,0.40
2015,02,24,00,39,0.40
2015,02,24,00,40,0.40
2015,02,24,00,41,0.40
2015,02,24,00,42,0.30
2015,02,24,00,43,0.30
2015,02,24,00,44,0.30
2015,02,24,00,45,0.30
2015,02,24,00,46,0.30
2015,02,24,00,47,0.20
2015,02,24,00,48,0.20
2015,02,24,00,49,0.20
2015,02,24,00,50,0.20
2015,02,24,00,51,0.20
2015,02,24,00,52,0.20
2015,02,24,00,53,0.20
2015,02,24,00,54,0.20
2015,02,24,00,55,0.20
2015,02,24,00,56,0.20
2015,02,24,00,57,0.20
2015,02,24,00,58,0.20
2015,02,24,00,59,0.20
2015,02,24,01,00,0.20
2015,02,24,01,01,0.20
2015,02,24,01,02,0.20
2015,02,24,01,03,0.20
2015,02,24,01,04,0.20
2015,02,24,01,05,0.20
2015,02,24,01,06,0.20
2015,02,24,01,07,0.20
2015,02,24,01,08,0.20
2015,02,24,01,09,0.20
2015,02,24,01,10,0.10
2015,02,24,01,11,0.10
2015,02,24,01,12,0.10
2015,02,24,01,13,0.10
2015,02,24,01,14,0.10
2015,02,24,01,15,0.10
2015,02,24,01,16,0.10
2015,02,24,01,17,0.00
2015,02,24,01,18,0.10
2015,02,24,01,19,0.00
2015,02,24,01,20,0.00
2015,02,24,01,21,0.10
2015,02,24,01,22,0.10
2015,02,24,01,23,0.10
2015,02,24,01,24,0.10
2015,02,24,01,25,0.10
2015,02,24,01,26,0.10
2015,02,24,01,27,0.10
2015,02,24,01,28,0.10
2015,02,24,01,29,0.10
2015,02,24,01,30,0.10
2015,02,24,01,31,0.10
2015,02,24,01,32,0.10
2015,02,24,01,33,0.10
2015,02,24,01,34,0.10
2015,02,24,01,35,0.10
2015,02,24,01,36,0.10
2015,02,24,01,37,0.10
2015,02,24,01,38,0.00
2015,02,24,01,39,0.00
2015,02,24,01,40,-0.10
2015,02,24,01,41,-0.10
2015,02,24,01,42,-0.10
2015,02,24,01,43,-0.20
2015,02,24,01,44,-0.20
2015,02,24,01,45,-0.20
2015,02,24,01,46,-0.20
2015,02,24,01,47,-0.20
2015,02,24,01,48,-0.20
2015,02,24,01,49,-0.20
2015,02,24,01,50,-0.20
2015,02,24,01,51,-0.20
2015,02,24,01,52,-0.20
2015,02,24,01,53,-0.20
2015,02,24,01,54,-0.20
2015,02,24,01,55,-0.20
2015,02,24,01,56,-0.20
2015,02,24,01,57,-0.20
2015,02,24,01,58,-0.20
2015,02,24,01,59,-0.10
2015,02,24,02,00,-0.10
2015,02,24,02,01,-0.10
2015,02,24,02,02,-0.10
2015,02,24,02,03,-0.10
2015,02,24,02,04,-0.10
2015,02,24,02,05,-0.10
2015,02,24,02,06,0.00
2015,02,24,02,07,0.00
2015,02,24,02,08,0.00
2015,02,24,02,09,0.00
2015,02,24,02,10,0.10
2015,02,24,02,11,0.10
2015,02,24,02,12,0.10
2015,02,24,02,13,0.10
2015,02,24,02,14,0.10
2015,02,24,02,15,0.10
2015,02,24,02,16,0.20
2015,02,24,02,17,0.20
2015,02,24,02,18,0.10
2015,02,24,02,19,0.10
2015,02,24,02,20,0.10
2015,02,24,02,21,0.10
2015,02,24,02,22,0.00
2015,02,24,02,23,-0.10
2015,02,24,02,24,-0.10
2015,02,24,02,25,-0.10
2015,02,24,02,26,-0.20
2015,02,24,02,27,-0.20
2015,02,24,02,28,-0.20
2015,02,24,02,29,-0.20
2015,02,24,02,30,-0.20
2015,02,24,02,31,-0.20
2015,02,24,02,32,-0.30
2015,02,24,02,33,-0.30
2015,02,24,02,34,-0.30
2015,02,24,02,35,-0.30
2015,02,24,02,36,-0.30
2015,02,24,02,37,-0.30
2015,02,24,02,38,-0.30
2015,02,24,02,39,-0.30
2015,02,24,02,40,-0.30
2015,02,24,02,41,-0.30
2015,02,24,02,42,-0.30
2015,02,24,02,43,-0.30
2015,02,24,02,44,-0.30
2015,02,24,02,45,-0.30
2015,02,24,02,46,-0.30
2015,02,24,02,47,-0.30
2015,02,24,02,48,-0.30
2015,02,24,02,49,-0.40
2015,02,24,02,50,-0.40
2015,02,24,02,51,-0.40
2015,02,24,02,52,-0.40
2015,02,24,02,53,-0.40
2015,02,24,02,54,-0.40
2015,02,24,02,55,-0.40
2015,02,24,02,56,-0.40
2015,02,24,02,57,-0.40
2015,02,24,02,58,-0.40
2015,02,24,02,59,-0.40
2015,02,24,03,00,-0.40
2015,02,24,03,01,-0.40
2015,02,24,03,02,-0.40
2015,02,24,03,03,-0.40
2015,02,24,03,04,-0.40
2015,02,24,03,05,-0.40
2015,02,24,03,06,-0.40
2015,02,24,03,07,-0.40
2015,02,24,03,08,-0.40
2015,02,24,03,09,-0.40
2015,02,24,03,10,-0.40
2015,02,24,03,11,-0.50
2015,02,24,03,12,-0.50
2015,02,24,03,13,-0.50
2015,02,24,03,14,-0.50
2015,02,24,03,15,-0.50
2015,02,24,03,16,-0.50
2015,02,24,03,17,-0.60
2015,02,24,03,18,-0.60
2015,02,24,03,19,-0.60
2015,02,24,03,20,-0.60
2015,02,24,03,21,-0.60
2015,02,24,03,22,-0.60
2015,02,24,03,23,-0.70
2015,02,24,03,24,-0.70
2015,02,24,03,25,-0.70
2015,02,24,03,26,-0.70
2015,02,24,03,27,-0.80
2015,02,24,03,28,-0.80
2015,02,24,03,29,-0.80
2015,02,24,03,30,-0.80
2015,02,24,03,31,-0.80
2015,02,24,03,32,-0.90
2015,02,24,03,33,-0.90
2015,02,24,03,34,-0.90
2015,02,24,03,35,-0.90
2015,02,24,03,36,-0.90
2015,02,24,03,37,-0.90
2015,02,24,03,38,-0.90
2015,02,24,03,39,-0.90
2015,02,24,03,40,-0.90
2015,02,24,03,41,-0.90
2015,02,24,03,42,-0.90
2015,02,24,03,43,-0.90
2015,02,24,03,44,-0.90
2015,02,24,03,45,-0.90
2015,02,24,03,46,-0.90
2015,02,24,03,47,-0.90
2015,02,24,03,48,-0.90
2015,02,24,03,49,-0.90
2015,02,24,03,50,-0.90
2015,02,24,03,51,-0.90
2015,02,24,03,52,-0.90
2015,02,24,03,53,-0.90
2015,02,24,03,54,-0.90
2015,02,24,03,55,-0.90
2015,02,24,03,56,-0.90
2015,02,24,03,57,-0.90
2015,02,24,03,58,-0.90
2015,02,24,03,59,-0.90
2015,02,24,04,00,-0.90
2015,02,24,04,01,-1.00
2015,02,24,04,02,-1.00
2015,02,24,04,03,-1.00
2015,02,24,04,04,-1.00
2015,02,24,04,05,-1.00
2015,02,24,04,06,-1.00
2015,02,24,04,07,-1.00
2015,02,24,04,08,-0.90
2015,02,24,04,09,-0.90
2015,02,24,04,10,-0.90
2015,02,24,04,11,-0.90
2015,02,24,04,12,-0.90
2015,02,24,04,13,-0.90
2015,02,24,04,14,-0.90
2015,02,24,04,15,-0.90
2015,02,24,04,16,-0.90
2015,02,24,04,17,-0.90
2015,02,24,04,18,-0.90
2015,02,24,04,19,-0.90
2015,02,24,04,20,-0.90
2015,02,24,04,21,-0.90
2015,02,24,04,22,-0.90
2015,02,24,04,23,-0.90
2015,02,24,04,24,-1.00
2015,02,24,04,25,-1.00
2015,02,24,04,26,-1.00
2015,02,24,04,27,-1.00
2015,02,24,04,28,-1.00
2015,02,24,04,29,-1.00
2015,02,24,04,30,-1.00
2015,02,24,04,31,-1.00
2015,02,24,04,32,-1.00
2015,02,24,04,33,-1.00
2015,02,24,04,34,-1.00
2015,02,24,04,35,-1.00
2015,02,24,04,36,-1.00
2015,02,24,04,37,-1.00
2015,02,24,04,38,-1.00
2015,02,24,04,39,-1.00
2015,02,24,04,40,-1.00
2015,02,24,04,41,-1.00
2015,02,24,04,42,-1.00
2015,02,24,04,43,-1.00
2015,02,24,04,44,-1.00
2015,02,24,04,45,-1.00
2015,02,24,04,46,-1.00
2015,02,24,04,47,-1.00
2015,02,24,04,48,-0.90
2015,02,24,04,49,-1.00
2015,02,24,04,50,-0.90
2015,02,24,04,51,-0.90
2015,02,24,04,52,-0.90
2015,02,24,04,53,-0.90
2015,02,24,04,54,-0.90
2015,02,24,04,55,-0.90
2015,02,24,04,56,-0.90
2015,02,24,04,57,-0.90
2015,02,24,04,58,-0.90
2015,02,24,04,59,-0.90
2015,02,24,05,00,-0.90
2015,02,24,05,01,-0.90
2015,02,24,05,02,-0.90
2015,02,24,05,03,-0.90
2015,02,24,05,04,-0.90
2015,02,24,05,05,-0.90
2015,02,24,05,06,-0.90
2015,02,24,05,07,-0.90
2015,02,24,05,08,-0.90
2015,02,24,05,09,-0.90
2015,02,24,05,10,-0.90
2015,02,24,05,11,-0.90
2015,02,24,05,12,-0.80
2015,02,24,05,13,-0.80
2015,02,24,05,14,-0.80
2015,02,24,05,15,-0.80
2015,02,24,05,16,-0.80
2015,02,24,05,17,-0.80
2015,02,24,05,18,-0.80
2015,02,24,05,19,-0.80
2015,02,24,05,20,-0.80
2015,02,24,05,21,-0.80
2015,02,24,05,22,-0.90
2015,02,24,05,23,-0.90
2015,02,24,05,24,-0.80
2015,02,24,05,25,-0.90
2015,02,24,05,26,-0.90
2015,02,24,05,27,-0.90
2015,02,24,05,28,-0.90
2015,02,24,05,29,-0.90
2015,02,24,05,30,-0.90
2015,02,24,05,31,-0.80
2015,02,24,05,32,-0.90
2015,02,24,05,33,-0.80
2015,02,24,05,34,-0.80
2015,02,24,05,35,-0.80
2015,02,24,05,36,-0.80
2015,02,24,05,37,-0.80
2015,02,24,05,38,-0.80
2015,02,24,05,39,-0.80
2015,02,24,05,40,-0.80
2015,02,24,05,41,-0.80
2015,02,24,05,42,-0.80
2015,02,24,05,43,-0.80
2015,02,24,05,44,-0.80
2015,02,24,05,45,-0.80
2015,02,24,05,46,-0.90
2015,02,24,05,47,-0.90
2015,02,24,05,48,-0.90
2015,02,24,05,49,-0.90
2015,02,24,05,50,-0.90
2015,02,24,05,51,-0.90
2015,02,24,05,52,-0.90
2015,02,24,05,53,-0.90
2015,02,24,05,54,-0.90
2015,02,24,05,55,-0.90
2015,02,24,05,56,-0.90
2015,02,24,05,57,-0.90
2015,02,24,05,58,-0.90
2015,02,24,05,59,-0.80
2015,02,24,06,00,-0.80
2015,02,24,06,01,-0.80
2015,02,24,06,02,-0.80
2015,02,24,06,03,-0.80
2015,02,24,06,04,-0.70
2015,02,24,06,05,-0.70
2015,02,24,06,06,-0.70
2015,02,24,06,07,-0.60
2015,02,24,06,08,-0.60
2015,02,24,06,09,-0.60
2015,02,24,06,10,-0.60
2015,02,24,06,11,-0.60
2015,02,24,06,12,-0.60
2015,02,24,06,13,-0.60
2015,02,24,06,14,-0.60
2015,02,24,06,15,-0.60
2015,02,24,06,16,-0.60
2015,02,24,06,17,-0.60
2015,02,24,06,18,-0.60
2015,02,24,06,19,-0.60
2015,02,24,06,20,-0.50
2015,02,24,06,21,-0.50
2015,02,24,06,22,-0.50
2015,02,24,06,23,-0.40
2015,02,24,06,24,-0.40
2015,02,24,06,25,-0.40
2015,02,24,06,26,-0.40
2015,02,24,06,27,-0.40
2015,02,24,06,28,-0.40
2015,02,24,06,29,-0.40
2015,02,24,06,30,-0.40
2015,02,24,06,31,-0.40
2015,02,24,06,32,-0.40
2015,02,24,06,33,-0.40
2015,02,24,06,34,-0.40
2015,02,24,06,35,-0.40
2015,02,24,06,36,-0.40
2015,02,24,06,37,-0.40
2015,02,24,06,38,-0.40
2015,02,24,06,39,-0.40
2015,02,24,06,40,-0.40
2015,02,24,06,41,-0.40
2015,02,24,06,42,-0.40
2015,02,24,06,43,-0.40
2015,02,24,06,44,-0.50
2015,02,24,06,45,-0.50
2015,02,24,06,46,-0.50
2015,02,24,06,47,-0.50
2015,02,24,06,48,-0.60
2015,02,24,06,49,-0.60
2015,02,24,06,50,-0.60
2015,02,24,06,51,-0.60
2015,02,24,06,52,-0.60
2015,02,24,06,53,-0.60
2015,02,24,06,54,-0.60
2015,02,24,06,55,-0.60
2015,02,24,06,56,-0.60
2015,02,24,06,57,-0.60
2015,02,24,06,58,-0.60
2015,02,24,06,59,-0.70
2015,02,24,07,00,-0.70
2015,02,24,07,01,-0.70
2015,02,24,07,02,-0.70
2015,02,24,07,03,-0.70
2015,02,24,07,04,-0.70
2015,02,24,07,05,-0.80
2015,02,24,07,06,-0.80
2015,02,24,07,07,-0.80
2015,02,24,07,08,-0.80
2015,02,24,07,09,-0.80
2015,02,24,07,10,-0.80
2015,02,24,07,11,-0.80
2015,02,24,07,12,-0.80
2015,02,24,07,13,-0.80
2015,02,24,07,14,-0.80
2015,02,24,07,15,-0.80
2015,02,24,07,16,-0.80
2015,02,24,07,17,-0.80
2015,02,24,07,18,-0.80
2015,02,24,07,19,-0.80
2015,02,24,07,20,-0.80
2015,02,24,07,21,-0.80
2015,02,24,07,22,-0.80
2015,02,24,07,23,-0.80
2015,02,24,07,24,-0.80
2015,02,24,07,25,-0.80
2015,02,24,07,26,-0.90
2015,02,24,07,27,-0.90
2015,02,24,07,28,-0.90
2015,02,24,07,29,-0.90
2015,02,24,07,30,-0.90
2015,02,24,07,31,-0.90
2015,02,24,07,32,-0.90
2015,02,24,07,33,-1.00
2015,02,24,07,34,-1.00
2015,02,24,07,35,-1.00
2015,02,24,07,36,-1.00
2015,02,24,07,37,-1.00
2015,02,24,07,38,-1.00
2015,02,24,07,39,-1.00
2015,02,24,07,40,-1.00
2015,02,24,07,41,-0.90
2015,02,24,07,42,-0.90
2015,02,24,07,43,-0.90
2015,02,24,07,44,-0.90
2015,02,24,07,45,-0.90
2015,02,24,07,46,-0.90
2015,02,24,07,47,-0.90
2015,02,24,07,48,-0.90
2015,02,24,07,49,-0.90
2015,02,24,07,50,-0.90
2015,02,24,07,51,-0.90
2015,02,24,07,52,-0.80
2015,02,24,07,53,-0.80
2015,02,24,07,54,-0.80
2015,02,24,07,55,-0.80
2015,02,24,07,56,-0.70
2015,02,24,07,57,-0.70
2015,02,24,07,58,-0.70
2015,02,24,07,59,-0.70
2015,02,24,08,00,-0.70
2015,02,24,08,01,-0.70
2015,02,24,08,02,-0.70
2015,02,24,08,03,-0.70
2015,02,24,08,04,-0.70
2015,02,24,08,05,-0.70
2015,02,24,08,06,-0.70
2015,02,24,08,07,-0.70
2015,02,24,08,08,-0.70
2015,02,24,08,09,-0.70
2015,02,24,08,10,-0.70
2015,02,24,08,11,-0.70
2015,02,24,08,12,-0.70
2015,02,24,08,13,-0.70
2015,02,24,08,14,-0.60
2015,02,24,08,15,-0.60
2015,02,24,08,16,-0.60
2015,02,24,08,17,-0.60
2015,02,24,08,18,-0.60
2015,02,24,08,19,-0.50
2015,02,24,08,20,-0.50
2015,02,24,08,21,-0.50
2015,02,24,08,22,-0.50
2015,02,24,08,23,-0.50
2015,02,24,08,24,-0.40
2015,02,24,08,25,-0.40
2015,02,24,08,26,-0.40
2015,02,24,08,27,-0.40
2015,02,24,08,28,-0.40
2015,02,24,08,29,-0.40
2015,02,24,08,30,-0.40
2015,02,24,08,31,-0.40
2015,02,24,08,32,-0.40
2015,02,24,08,33,-0.40
2015,02,24,08,34,-0.40
2015,02,24,08,35,-0.40
2015,02,24,08,36,-0.50
2015,02,24,08,37,-0.50
2015,02,24,08,38,-0.50
2015,02,24,08,39,-0.50
2015,02,24,08,40,-0.50
2015,02,24,08,41,-0.50
2015,02,24,08,42,-0.50
2015,02,24,08,43,-0.40
2015,02,24,08,44,-0.40
2015,02,24,08,45,-0.40
2015,02,24,08,46,-0.40
2015,02,24,08,47,-0.40
2015,02,24,08,48,-0.40
2015,02,24,08,49,-0.40
2015,02,24,08,50,-0.30
2015,02,24,08,51,-0.30
2015,02,24,08,52,-0.30
2015,02,24,08,53,-0.30
2015,02,24,08,54,-0.20
2015,02,24,08,55,-0.20
2015,02,24,08,56,-0.10
2015,02,24,08,57,-0.10
2015,02,24,08,58,0.00
2015,02,24,08,59,0.00
2015,02,24,09,00,0.10
2015,02,24,09,01,0.10
2015,02,24,09,02,0.20
2015,02,24,09,03,0.20
2015,02,24,09,04,0.30
2015,02,24,09,05,0.30
2015,02,24,09,06,0.40
2015,02,24,09,07,0.50
2015,02,24,09,08,0.60
2015,02,24,09,09,0.60
2015,02,24,09,10,0.70
2015,02,24,09,11,0.70
2015,02,24,09,12,0.80
2015,02,24,09,13,0.80
2015,02,24,09,14,0.90
2015,02,24,09,15,0.90
2015,02,24,09,16,1.00
2015,02,24,09,17,1.00
2015,02,24,09,18,1.10
2015,02,24,09,19,1.10
2015,02,24,09,20,1.20
2015,02,24,09,21,1.20
2015,02,24,09,22,1.20
2015,02,24,09,23,1.30
2015,02,24,09,24,1.30
2015,02,24,09,25,1.30
2015,02,24,09,26,1.30
2015,02,24,09,27,1.30
2015,02,24,09,28,1.40
2015,02,24,09,29,1.40
2015,02,24,09,30,1.40
2015,02,24,09,31,1.40
2015,02,24,09,32,1.50
2015,02,24,09,33,1.50
2015,02,24,09,34,1.60
2015,02,24,09,35,1.60
2015,02,24,09,36,1.70
2015,02,24,09,37,1.70
2015,02,24,09,38,1.80
2015,02,24,09,39,1.80
2015,02,24,09,40,1.90
2015,02,24,09,41,1.90
2015,02,24,09,42,2.00
2015,02,24,09,43,2.00
2015,02,24,09,44,2.10
2015,02,24,09,45,2.20
2015,02,24,09,46,2.20
2015,02,24,09,47,2.30
2015,02,24,09,48,2.30
2015,02,24,09,49,2.40
2015,02,24,09,50,2.50
2015,02,24,09,51,2.60
2015,02,24,09,52,2.60
2015,02,24,09,53,2.70
2015,02,24,09,54,2.80
2015,02,24,09,55,2.90
2015,02,24,09,56,3.00
2015,02,24,09,57,3.00
2015,02,24,09,58,3.10
2015,02,24,09,59,3.20
2015,02,24,10,00,3.20
2015,02,24,10,01,3.30
2015,02,24,10,02,3.40
2015,02,24,10,03,3.50
2015,02,24,10,04,3.50
2015,02,24,10,05,3.60
2015,02,24,10,06,3.70
2015,02,24,10,07,3.80
2015,02,24,10,08,3.80
2015,02,24,10,09,3.90
2015,02,24,10,10,3.90
2015,02,24,10,11,4.00
2015,02,24,10,12,4.00
2015,02,24,10,13,4.10
2015,02,24,10,14,4.20
2015,02,24,10,15,4.20
2015,02,24,10,16,4.30
2015,02,24,10,17,4.40
2015,02,24,10,18,4.40
2015,02,24,10,19,4.50
2015,02,24,10,20,4.60
2015,02,24,10,21,4.60
2015,02,24,10,22,4.70
2015,02,24,10,23,4.80
2015,02,24,10,24,4.90
2015,02,24,10,25,5.00
2015,02,24,10,26,5.10
2015,02,24,10,27,5.20
2015,02,24,10,28,5.30
2015,02,24,10,29,5.30
2015,02,24,10,30,5.40
2015,02,24,10,31,5.50
2015,02,24,10,32,5.60
2015,02,24,10,33,5.70
2015,02,24,10,34,5.80
2015,02,24,10,35,5.90
2015,02,24,10,36,6.00
2015,02,24,10,37,6.10
2015,02,24,10,38,6.10
2015,02,24,10,39,6.20
2015,02,24,10,40,6.30
2015,02,24,10,41,6.40
2015,02,24,10,42,6.40
2015,02,24,10,43,6.50
2015,02,24,10,44,6.60
2015,02,24,10,45,6.70
2015,02,24,10,46,6.70
2015,02,24,10,47,6.80
2015,02,24,10,48,6.80
2015,02,24,10,49,6.90
2015,02,24,10,50,6.90
2015,02,24,10,51,6.90
2015,02,24,10,52,7.00
2015,02,24,10,53,7.00
2015,02,24,10,54,7.10
2015,02,24,10,55,7.10
2015,02,24,10,56,7.20
2015,02,24,10,57,7.20
2015,02,24,10,58,7.30
2015,02,24,10,59,7.30
2015,02,24,11,00,7.40
2015,02,24,11,01,7.40
2015,02,24,11,02,7.40
2015,02,24,11,03,7.50
2015,02,24,11,04,7.50
2015,02,24,11,05,7.50
2015,02,24,11,06,7.60
2015,02,24,11,07,7.70
2015,02,24,11,08,7.70
2015,02,24,11,09,7.80
2015,02,24,11,10,7.80
2015,02,24,11,11,7.90
2015,02,24,11,12,8.00
2015,02,24,11,13,8.00
2015,02,24,11,14,8.10
2015,02,24,11,15,8.10
2015,02,24,11,16,8.10
2015,02,24,11,17,8.10
2015,02,24,11,18,8.20
2015,02,24,11,19,8.20
2015,02,24,11,20,8.20
2015,02,24,11,21,8.20
2015,02,24,11,22,8.30
2015,02,24,11,23,8.30
2015,02,24,11,24,8.30
2015,02,24,11,25,8.40
2015,02,24,11,26,8.40
2015,02,24,11,27,8.40
2015,02,24,11,28,8.50
2015,02,24,11,29,8.50
2015,02,24,11,30,8.50
2015,02,24,11,31,8.50
2015,02,24,11,32,8.50
2015,02,24,11,33,8.50
2015,02,24,11,34,8.50
2015,02,24,11,35,8.60
2015,02,24,11,36,8.60
2015,02,24,11,37,8.60
2015,02,24,11,38,8.70
2015,02,24,11,39,8.70
2015,02,24,11,40,8.80
2015,02,24,11,41,8.80
2015,02,24,11,42,8.80
2015,02,24,11,43,8.90
2015,02,24,11,44,8.90
2015,02,24,11,45,8.90
2015,02,24,11,46,9.00
2015,02,24,11,47,9.10
2015,02,24,11,48,9.10
2015,02,24,11,49,9.10
2015,02,24,11,50,9.20
2015,02,24,11,51,9.20
2015,02,24,11,52,9.20
2015,02,24,11,53,9.30
2015,02,24,11,54,9.30
2015,02,24,11,55,9.30
2015,02,24,11,56,9.30
2015,02,24,11,57,9.30
2015,02,24,11,58,9.40
2015,02,24,11,59,9.40
2015,02,24,12,00,9.40
2015,02,24,12,01,9.40
2015,02,24,12,02,9.40
2015,02,24,12,03,9.40
2015,02,24,12,04,9.40
2015,02,24,12,05,9.30
2015,02,24,12,06,9.40
2015,02,24,12,07,9.40
2015,02,24,12,08,9.40
2015,02,24,12,09,9.40
2015,02,24,12,10,9.40
2015,02,24,12,11,9.40
2015,02,24,12,12,9.50
2015,02,24,12,13,9.50
2015,02,24,12,14,9.60
2015,02,24,12,15,9.70
2015,02,24,12,16,9.80
2015,02,24,12,17,9.80
2015,02,24,12,18,9.90
2015,02,24,12,19,9.90
2015,02,24,12,20,9.90
2015,02,24,12,21,10.00
2015,02,24,12,22,10.00
2015,02,24,12,23,10.00
2015,02,24,12,24,10.10
2015,02,24,12,25,10.10
2015,02,24,12,26,10.10
2015,02,24,12,27,10.20
2015,02,24,12,28,10.20
2015,02,24,12,29,10.20
2015,02,24,12,30,10.20
2015,02,24,12,31,10.20
2015,02,24,12,32,10.20
2015,02,24,12,33,10.20
2015,02,24,12,34,10.30
2015,02,24,12,35,10.30
2015,02,24,12,36,10.30
2015,02,24,12,37,10.40
2015,02,24,12,38,10.40
2015,02,24,12,39,10.50
2015,02,24,12,40,10.50
2015,02,24,12,41,10.60
2015,02,24,12,42,10.60
2015,02,24,12,43,10.60
2015,02,24,12,44,10.70
2015,02,24,12,45,10.70
2015,02,24,12,46,10.70
2015,02,24,12,47,10.70
2015,02,24,12,48,10.80
2015,02,24,12,49,10.80
2015,02,24,12,50,10.80
2015,02,24,12,51,10.90
2015,02,24,12,52,10.90
2015,02,24,12,53,10.90
2015,02,24,12,54,10.90
2015,02,24,12,55,11.00
2015,02,24,12,56,11.00
2015,02,24,12,57,11.10
2015,02,24,12,58,11.10
2015,02,24,12,59,11.10
2015,02,24,13,00,11.10
2015,02,24,13,01,11.20
2015,02,24,13,02,11.10
2015,02,24,13,03,11.10
2015,02,24,13,04,11.00
2015,02,24,13,05,10.90
2015,02,24,13,06,10.80
2015,02,24,13,07,10.70
2015,02,24,13,08,10.60
2015,02,24,13,09,10.50
2015,02,24,13,10,10.50
2015,02,24,13,11,10.40
2015,02,24,13,12,10.30
2015,02,24,13,13,10.20
2015,02,24,13,14,10.10
2015,02,24,13,15,10.00
2015,02,24,13,16,9.90
2015,02,24,13,17,9.80
2015,02,24,13,18,9.80
2015,02,24,13,19,9.70
2015,02,24,13,20,9.70
2015,02,24,13,21,9.70
2015,02,24,13,22,9.80
2015,02,24,13,23,9.80
2015,02,24,13,24,9.80
2015,02,24,13,25,9.80
2015,02,24,13,26,9.90
2015,02,24,13,27,9.90
2015,02,24,13,28,9.90
2015,02,24,13,29,9.90
2015,02,24,13,30,10.00
2015,02,24,13,31,10.00
2015,02,24,13,32,10.00
2015,02,24,13,33,10.10
2015,02,24,13,34,10.10
2015,02,24,13,35,10.20
2015,02,24,13,36,10.20
2015,02,24,13,37,10.30
2015,02,24,13,38,10.40
2015,02,24,13,39,10.40
2015,02,24,13,40,10.40
2015,02,24,13,41,10.50
2015,02,24,13,42,10.50
2015,02,24,13,43,10.50
2015,02,24,13,44,10.50
2015,02,24,13,45,10.50
2015,02,24,13,46,10.60
2015,02,24,13,47,10.60
2015,02,24,13,48,10.60
2015,02,24,13,49,10.70
2015,02,24,13,50,10.70
2015,02,24,13,51,10.80
2015,02,24,13,52,10.80
2015,02,24,13,53,10.80
2015,02,24,13,54,10.90
2015,02,24,13,55,11.00
2015,02,24,13,56,11.00
2015,02,24,13,57,11.10
2015,02,24,13,58,11.10
2015,02,24,13,59,11.10
2015,02,24,14,00,11.20
2015,02,24,14,01,11.20
2015,02,24,14,02,11.20
2015,02,24,14,03,11.10
2015,02,24,14,04,11.00
2015,02,24,14,05,10.90
2015,02,24,14,06,10.90
2015,02,24,14,07,10.90
2015,02,24,14,08,10.90
2015,02,24,14,09,10.90
2015,02,24,14,10,10.90
2015,02,24,14,11,11.00
2015,02,24,14,12,11.00
2015,02,24,14,13,11.10
2015,02,24,14,14,11.20
2015,02,24,14,15,11.20
2015,02,24,14,16,11.20
2015,02,24,14,17,11.30
2015,02,24,14,18,11.30
2015,02,24,14,19,11.30
2015,02,24,14,20,11.40
2015,02,24,14,21,11.40
2015,02,24,14,22,11.40
2015,02,24,14,23,11.40
2015,02,24,14,24,11.50
2015,02,24,14,25,11.50
2015,02,24,14,26,11.60
2015,02,24,14,27,11.60
2015,02,24,14,28,11.70
2015,02,24,14,29,11.70
2015,02,24,14,30,11.70
2015,02,24,14,31,11.80
2015,02,24,14,32,11.80
2015,02,24,14,33,11.80
2015,02,24,14,34,11.90
2015,02,24,14,35,11.90
2015,02,24,14,36,11.90
2015,02,24,14,37,11.90
2015,02,24,14,38,11.90
2015,02,24,14,39,11.90
2015,02,24,14,40,11.90
2015,02,24,14,41,11.90
2015,02,24,14,42,11.90
2015,02,24,14,43,11.90
2015,02,24,14,44,11.90
2015,02,24,14,45,11.90
2015,02,24,14,46,11.90
2015,02,24,14,47,11.90
2015,02,24,14,48,11.90
2015,02,24,14,49,11.90
2015,02,24,14,50,11.90
2015,02,24,14,51,12.00
2015,02,24,14,52,12.00
2015,02,24,14,53,12.10
2015,02,24,14,54,12.10
2015,02,24,14,55,12.10
2015,02,24,14,56,12.10
2015,02,24,14,57,12.10
2015,02,24,14,58,12.10
2015,02,24,14,59,12.20
2015,02,24,15,00,12.20
2015,02,24,15,01,12.20
2015,02,24,15,02,12.20
2015,02,24,15,03,12.30
2015,02,24,15,04,12.30
2015,02,24,15,05,12.30
2015,02,24,15,06,12.30
2015,02,24,15,07,12.30
2015,02,24,15,08,12.30
2015,02,24,15,09,12.30
2015,02,24,15,10,12.30
2015,02,24,15,11,12.30
2015,02,24,15,12,12.30
2015,02,24,15,13,12.30
2015,02,24,15,14,12.40
2015,02,24,15,15,12.40
2015,02,24,15,16,12.40
2015,02,24,15,17,12.50
2015,02,24,15,18,12.50
2015,02,24,15,19,12.50
2015,02,24,15,20,12.60
2015,02,24,15,21,12.60
2015,02,24,15,22,12.60
2015,02,24,15,23,12.60
2015,02,24,15,24,12.60
2015,02,24,15,25,12.60
2015,02,24,15,26,12.60
2015,02,24,15,27,12.60
2015,02,24,15,28,12.60
2015,02,24,15,29,12.60
2015,02,24,15,30,12.60
2015,02,24,15,31,12.70
2015,02,24,15,32,12.70
2015,02,24,15,33,12.70
2015,02,24,15,34,12.70
2015,02,24,15,35,12.70
2015,02,24,15,36,12.70
2015,02,24,15,37,12.70
2015,02,24,15,38,12.70
2015,02,24,15,39,12.70
2015,02,24,15,40,12.70
2015,02,24,15,41,12.70
2015,02,24,15,42,12.70
2015,02,24,15,43,12.70
2015,02,24,15,44,12.70
2015,02,24,15,45,12.70
2015,02,24,15,46,12.70
2015,02,24,15,47,12.60
2015,02,24,15,48,12.50
2015,02,24,15,49,12.50
2015,02,24,15,50,12.40
2015,02,24,15,51,12.40
2015,02,24,15,52,12.40
2015,02,24,15,53,12.40
2015,02,24,15,54,12.40
2015,02,24,15,55,12.40
2015,02,24,15,56,12.40
2015,02,24,15,57,12.40
2015,02,24,15,58,12.40
2015,02,24,15,59,12.30
2015,02,24,16,00,12.30
2015,02,24,16,01,12.30
2015,02,24,16,02,12.20
2015,02,24,16,03,12.20
2015,02,24,16,04,12.10
2015,02,24,16,05,12.10
2015,02,24,16,06,12.00
2015,02,24,16,07,12.00
2015,02,24,16,08,12.00
2015,02,24,16,09,11.90
2015,02,24,16,10,11.90
2015,02,24,16,11,11.90
2015,02,24,16,12,11.90
2015,02,24,16,13,12.00
2015,02,24,16,14,12.00
2015,02,24,16,15,12.10
2015,02,24,16,16,12.10
2015,02,24,16,17,12.10
2015,02,24,16,18,12.10
2015,02,24,16,19,12.10
2015,02,24,16,20,12.10
2015,02,24,16,21,12.10
2015,02,24,16,22,12.20
2015,02,24,16,23,12.20
2015,02,24,16,24,12.20
2015,02,24,16,25,12.30
2015,02,24,16,26,12.30
2015,02,24,16,27,12.40
2015,02,24,16,28,12.40
2015,02,24,16,29,12.40
2015,02,24,16,30,12.50
2015,02,24,16,31,12.50
2015,02,24,16,32,12.50
2015,02,24,16,33,12.50
2015,02,24,16,34,12.50
2015,02,24,16,35,12.50
2015,02,24,16,36,12.50
2015,02,24,16,37,12.50
2015,02,24,16,38,12.50
2015,02,24,16,39,12.40
2015,02,24,16,40,12.40
2015,02,24,16,41,12.40
2015,02,24,16,42,12.30
2015,02,24,16,43,12.20
2015,02,24,16,44,12.20
2015,02,24,16,45,12.10
2015,02,24,16,46,12.00
2015,02,24,16,47,11.90
2015,02,24,16,48,11.80
2015,02,24,16,49,11.70
2015,02,24,16,50,11.60
2015,02,24,16,51,11.50
2015,02,24,16,52,11.40
2015,02,24,16,53,11.30
2015,02,24,16,54,11.30
2015,02,24,16,55,11.20
2015,02,24,16,56,11.10
2015,02,24,16,57,11.00
2015,02,24,16,58,11.00
2015,02,24,16,59,10.90
2015,02,24,17,00,10.80
2015,02,24,17,01,10.80
2015,02,24,17,02,10.70
2015,02,24,17,03,10.70
2015,02,24,17,04,10.70
2015,02,24,17,05,10.60
2015,02,24,17,06,10.60
2015,02,24,17,07,10.60
2015,02,24,17,08,10.50
2015,02,24,17,09,10.50
2015,02,24,17,10,10.50
2015,02,24,17,11,10.40
2015,02,24,17,12,10.40
2015,02,24,17,13,10.40
2015,02,24,17,14,10.30
2015,02,24,17,15,10.30
2015,02,24,17,16,10.30
2015,02,24,17,17,10.20
2015,02,24,17,18,10.20
2015,02,24,17,19,10.20
2015,02,24,17,20,10.20
2015,02,24,17,21,10.20
2015,02,24,17,22,10.10
2015,02,24,17,23,10.10
2015,02,24,17,24,10.10
2015,02,24,17,25,10.10
2015,02,24,17,26,10.10
2015,02,24,17,27,10.00
2015,02,24,17,28,10.00
2015,02,24,17,29,10.00
2015,02,24,17,30,9.90
2015,02,24,17,31,9.90
2015,02,24,17,32,9.90
2015,02,24,17,33,9.90
2015,02,24,17,34,9.80